Powrót do katalogu

CZ-6A DEB

AktywnySSO
NORAD 55213·DEBRIS·🇨🇳 China

Wystrzelony Nov 11, 2022 z Taiyuan Satellite Launch Center

Loading…

Następne Przeloty (najbliższe 24 godziny)

TLE

ŚwieżeSource: Space-Track

Epoka: Sep 14, 2026, 14:57 UTC

1 55213U 22151WE  26257.62330572  .00004161  00000-0  87850-3 0  9990
2 55213  98.6150 314.6578 0088808  43.1542 317.6571 14.57488421197159

Śledź CZ-6A DEB w czasie rzeczywistym z AllMySat

Download on the App Store